EST,Max TemperatureF,Mean TemperatureF,Min TemperatureF,Max Dew PointF,MeanDew PointF,Min DewpointF,Max Humidity, Mean Humidity, Min Humidity, Max Sea Level PressureIn, Mean Sea Level PressureIn, Min Sea Level PressureIn, Max VisibilityMiles, Mean VisibilityMiles, Min VisibilityMiles, Max Wind SpeedMPH, Mean Wind SpeedMPH, Max Gust SpeedMPH,PrecipitationIn, CloudCover, Events, WindDirDegrees
2014-1-1,50,37,23,25,21,18,81,57,32,30.34,30.23,30.04,10,10,7,14,3,18,0.00,0,,178
2014-1-2,43,29,15,40,26,7,92,80,67,30.24,29.93,29.77,10,5,1,24,9,32,0.15,8,Rain-Snow,290
2014-1-3,23,16,9,11,7,3,74,60,45,30.51,30.39,30.27,10,9,2,18,5,28,T,3,Snow,340
2014-1-4,44,30,15,25,14,8,80,54,27,30.31,30.22,30.11,10,10,10,16,5,23,0.00,0,,166
2014-1-5,56,42,27,47,35,24,89,72,55,30.11,29.85,29.57,10,8,1,39,11,51,0.22,5,Rain-Snow,206
2014-1-6,31,15,-1,24,1,-11,92,76,60,30.49,30.19,29.81,10,6,1,25,14,34,0.02,7,Snow,280
2014-1-7,13,5,-4,1,-6,-13,79,65,50,30.61,30.51,30.44,10,10,10,22,6,26,0.00,0,,212
2014-1-8,36,22,7,19,10,1,80,60,39,30.56,30.49,30.45,10,10,10,10,3,16,0.00,0,,209
2014-1-9,44,35,26,34,23,19,82,62,41,30.52,30.43,30.30,10,10,10,6,2,8,0.03,6,Rain,137
2014-1-10,57,47,37,50,42,34,92,80,67,30.28,30.12,29.86,10,10,7,12,3,16,0.01,7,Rain,171
2014-1-11,59,48,37,52,45,31,93,72,50,29.91,29.71,29.60,10,8,2,26,12,33,0.88,5,Rain-Thunderstorm,246
2014-1-12,53,42,30,34,30,27,92,65,38,30.14,30.04,29.92,10,10,4,12,5,15,0.00,1,,207
2014-1-13,53,45,37,44,39,28,93,72,50,30.03,29.90,29.80,10,8,4,18,7,29,0.60,6,Rain,182
2014-1-14,52,46,40,43,36,25,96,67,38,29.96,29.88,29.78,10,8,2,18,7,23,0.17,6,Rain,247
2014-1-15,40,32,24,32,24,14,89,68,47,30.11,30.03,29.96,10,10,6,15,7,19,0.01,5,Rain-Snow,290
2014-1-16,39,29,19,21,16,9,84,58,32,30.09,29.98,29.85,10,10,9,16,7,22,T,5,,221
2014-1-17,39,30,20,31,23,10,85,67,48,30.11,29.91,29.83,10,6,0,22,10,29,0.03,7,Fog-Snow,262
2014-1-18,37,28,18,15,13,10,84,61,37,30.14,30.03,29.85,10,7,2,16,7,22,T,7,Snow,249
2014-1-19,42,39,35,30,25,15,82,60,37,30.05,29.95,29.83,10,10,7,20,10,24,T,4,Snow,236
2014-1-20,56,44,32,26,24,21,75,53,30,29.94,29.88,29.81,10,10,10,16,7,20,0.00,0,,236
2014-1-21,38,28,18,30,19,0,89,80,70,30.16,29.90,29.70,10,5,0,23,8,31,0.07,8,Fog-Snow,325
2014-1-22,20,11,1,7,2,-4,86,66,45,30.20,30.15,30.08,10,10,10,12,3,14,0.00,4,,293
2014-1-23,20,13,5,11,2,-6,67,56,44,30.66,30.42,30.17,10,9,2,20,8,25,T,4,Snow,317
2014-1-24,25,13,1,2,-1,-5,87,60,32,30.71,30.49,30.08,10,10,8,16,7,25,0.00,2,,212
2014-1-25,36,29,22,28,14,-3,88,60,32,30.05,29.81,29.69,10,7,0,24,14,32,0.09,6,Fog-Snow,240
2014-1-26,55,31,7,29,16,0,73,53,32,29.99,29.82,29.70,10,10,10,24,9,30,0.00,2,,213
2014-1-27,49,31,13,30,11,-3,75,54,32,30.38,30.06,29.72,10,10,10,28,10,38,0.00,5,,326
2014-1-28,14,11,7,-1,-3,-5,63,55,46,30.41,30.37,30.33,10,10,10,13,7,17,0.00,5,,9
2014-1-29,24,12,0,4,-3,-6,87,59,30,30.45,30.39,30.36,10,10,10,9,1,11,0.00,0,,190
2014-1-30,39,21,3,7,2,-2,83,52,21,30.36,30.23,30.09,10,10,10,16,6,23,0.00,0,,184
2014-1-31,45,34,23,23,15,7,68,48,28,30.20,30.15,30.09,10,10,10,10,3,15,0.00,6,,190